Location: ?????
(54.9266°N, 38.5527°E)
Time: 02:02:34
(UTC+00:00)

Cosmos 44 Rocket - Visible Passes

Search period start: 19 July 2024 00:00
Search period end: 29 July 2024 00:00
Orbit: 645 x 738 km, 65.1° (Epoch: 18 July)

Date Brightness Start Highest point End Pass type
(mag) Time Alt. Az. Time Alt. Az. Time Alt. Az.
19 Jul 4.4 21:48:21 21° SSE 21:50:49 31° ESE 21:55:13 10° ENE visible
19 Jul 3.6 23:26:59 10° WSW 23:32:01 68° NW 23:37:00 10° NE visible
20 Jul 5.1 20:49:03 14° SE 20:50:33 16° ESE 20:53:34 10° ENE visible
20 Jul 3.4 22:27:40 19° SSW 22:31:15 70° SE 22:36:14 10° NE visible
21 Jul 4.5 00:08:19 10° W 00:13:04 39° NNW 00:17:44 10° NE visible
21 Jul 4.1 21:28:18 23° S 21:30:42 37° ESE 21:35:17 10° NE visible
21 Jul 3.8 23:07:00 10° WSW 23:12:02 60° NW 23:16:58 10° NE visible
22 Jul 4.9 20:28:54 17° SE 20:30:23 19° ESE 20:33:52 10° ENE visible
22 Jul 3.3 22:07:31 19° SW 22:11:13 81° SE 22:16:13 10° NE visible
22 Jul 4.7 23:48:28 10° W 23:53:08 36° NNW 23:57:43 10° NE visible
23 Jul 3.8 21:08:02 24° S 21:10:36 43° SE 21:15:20 10° NE visible
23 Jul 4.0 22:47:05 10° WSW 22:52:04 54° NW 22:56:56 10° NE visible
24 Jul 5.3 00:30:12 10° WNW 00:34:28 27° N 00:38:40 10° NE visible
24 Jul 4.7 20:08:28 19° SE 20:10:13 22° ESE 20:14:04 10° ENE visible
24 Jul 3.3 21:47:05 16° SW 21:51:11 89° NW 21:56:12 10° NE visible
24 Jul 4.9 23:28:37 10° W 23:33:12 34° NNW 23:37:42 10° NE visible
25 Jul 5.4 19:09:02 10° ESE 19:10:06 11° ESE 19:11:08 10° E visible
25 Jul 3.6 20:47:25 22° SSW 20:50:31 50° SE 20:55:21 10° NE visible
25 Jul 4.2 22:27:10 10° WSW 22:32:05 48° NNW 22:36:54 10° NE visible
26 Jul 5.4 00:10:21 10° WNW 00:14:34 26° N 00:18:42 10° NE visible
26 Jul 4.4 19:47:39 18° SSE 19:50:04 26° ESE 19:54:13 10° ENE visible
26 Jul 3.5 21:26:14 11° SW 21:31:09 78° NW 21:36:09 10° NE visible
26 Jul 5.1 23:08:46 10° W 23:13:17 31° NNW 23:17:41 10° NE visible
27 Jul 5.2 18:47:42 10° SE 18:49:53 13° ESE 18:52:06 10° E visible
27 Jul 3.4 20:26:16 15° SSW 20:30:25 59° SE 20:35:20 10° NE visible
27 Jul 4.5 22:07:16 10° WSW 22:12:06 43° NNW 22:16:51 10° NE visible
27 Jul 5.5 23:50:29 10° WNW 23:54:40 26° N 23:58:45 10° NE visible
28 Jul 4.2 19:26:04 13° S 19:29:55 31° ESE 19:34:17 10° ENE visible
28 Jul 3.6 21:06:03 10° SW 21:11:08 69° NW 21:16:06 10° NE visible
28 Jul 5.2 22:48:56 10° WNW 22:53:20 30° NNW 22:57:40 10° NE visible
